Location: Spruce Knob
(38.6995°N, 79.5330°W)
Time: 16:31:18
(UTC-05:00)

Transit 2A - Visible Passes

Search period start: 30 November 2022 00:00
Search period end: 10 December 2022 00:00
Orbit: 598 x 959 km, 66.7° (Epoch: 30 November)

Date Brightness Start Highest point End Pass type
(mag) Time Alt. Az. Time Alt. Az. Time Alt. Az.
30 Nov 6.7 18:25:29 10° NW 18:30:56 63° WSW 18:36:52 10° SSE visible
01 Dec 6.2 17:51:00 10° NNW 17:56:30 90° NW 18:02:33 10° SSE visible
01 Dec 9.3 19:36:56 10° W 19:39:05 12° WSW 19:41:17 10° SW visible
02 Dec 6.2 17:16:36 10° NNW 17:22:04 63° ENE 17:28:00 10° SE visible
02 Dec 9.0 19:01:01 10° WNW 19:04:51 19° WSW 19:08:53 10° SSW visible
03 Dec 8.4 18:25:52 10° NW 18:30:34 28° WSW 18:35:36 10° SSW visible
04 Dec 7.8 17:51:03 10° NW 17:56:15 41° WSW 18:01:52 10° S visible
05 Dec 8.4 06:48:11 10° SSE 06:51:39 24° ESE 06:55:15 10° NE visible
05 Dec 7.0 17:16:24 10° NW 17:21:53 60° WSW 17:27:50 10° SSE visible
06 Dec 9.0 06:14:58 10° SE 06:17:27 15° ESE 06:19:58 10° ENE visible
06 Dec 9.8 18:28:08 10° W 18:30:01 12° WSW 18:31:56 10° WSW visible
07 Dec 9.3 17:52:02 10° WNW 17:55:47 18° WSW 17:59:43 10° SSW visible
08 Dec 6.0 06:46:52 10° SSW 06:51:08 69° ESE 06:55:41 10° NNE visible
09 Dec 7.0 06:12:44 10° S 06:16:48 41° ESE 06:21:05 10° NE visible
